Location: De Har
(53.3413°N, 6.6858°E)
Time: 07:55:12
(UTC+00:00)

Meteor 2-4 Rocket - Pass Details

Date: 22 April 2026
Orbit: 798 x 906 km, 81.2° (Epoch: 15 May)

Event Time Altitude Azimuth Distance (km) Brightness Sun altitude
Exits shadow 03:34:21 - 210° (SSW) 2,903 5.9 -6.7°
Reaches altitude 10° 03:35:43 10° 214° (SW) 2,381 5.5 -6.5°
Maximum altitude 03:40:55 50° 290° (WNW) 1,011 3.9 -5.9°
Drops below altitude 10° 03:46:09 10° 6° (N) 2,387 6.6 -5.2°
Sets 03:48:37 0° 12° (NNE) 3,326 7.4 -4.9°
